$DATE,$TIME,DM0600B,DM0602B,DM0604B,DM0614B,DM0616B,DM0618B,DM0624B,DM0628B,DM0630B,DM0634B,DM0606B,DM0608B,DM0610B
09/10/94,00:00:00,0,0,0,0,6,1,8,83,53,0,42,40,41
09/10/94,00:05:00,0,0,0,0,6,1,8,83,53,0,30,44,31
09/10/94,00:10:00,0,0,0,0,6,1,8,83,53,0,37,30,37
09/10/94,00:15:00,0,0,0,0,6,1,8,83,53,0,42,39,35
09/10/94,00:20:00,0,0,0,0,6,1,8,83,53,0,29,44,30
09/10/94,00:25:00,0,0,0,0,6,1,7,83,53,0,42,28,37
09/10/94,00:30:00,0,0,0,0,5,1,7,83,53,0,35,41,29
09/10/94,00:35:00,0,0,0,0,5,1,7,83,53,0,35,37,41
09/10/94,00:40:00,0,0,0,0,5,1,7,83,53,0,44,32,28
09/10/94,00:45:00,16,0,19,0,5,1,7,83,70,0,28,44,42
09/10/94,00:50:00,11,0,17,0,5,1,7,83,53,0,39,27,28
09/10/94,00:55:00,21,0,19,0,5,1,7,83,53,0,35,39,40
09/10/94,01:00:00,9,0,13,0,5,1,7,83,53,0,30,43,30
09/10/94,01:05:00,7,0,9,0,5,1,7,83,53,0,42,29,37
09/10/94,01:10:00,0,0,4,0,5,1,7,83,53,0,28,43,33
09/10/94,01:15:00,0,0,0,0,5,1,7,83,53,0,39,31,33
09/10/94,01:20:00,23,17,32,0,5,1,7,83,53,0,35,32,35
09/10/94,01:25:00,14,12,23,0,5,1,7,83,53,0,31,41,25
09/10/94,01:30:00,34,20,24,0,5,1,7,82,61,0,38,25,37
09/10/94,01:35:00,32,32,45,0,5,1,7,82,45,0,26,39,27
09/10/94,01:40:00,80,65,39,0,5,1,7,82,45,0,35,22,23
09/10/94,01:45:00,59,49,80,0,5,1,7,81,45,0,20,32,28
09/10/94,01:50:00,31,30,39,0,5,1,7,81,45,0,30,21,17
09/10/94,01:55:00,45,37,57,0,6,1,7,81,45,0,21,28,26
09/10/94,02:00:00,89,70,84,0,6,1,8,80,44,0,15,23,15
09/10/94,02:05:00,80,63,73,0,6,4,11,80,41,0,20,15,12
09/10/94,02:10:00,82,30,82,0,6,4,11,81,49,0,22,24,10
09/10/94,02:15:00,78,43,83,0,6,4,10,81,49,0,15,21,20
09/10/94,02:20:00,76,44,86,0,5,3,9,81,49,0,14,15,13
09/10/94,02:25:00,80,50,61,0,5,4,10,81,49,0,24,25,14
09/10/94,02:30:00,48,49,43,0,6,4,10,81,49,0,18,21,19
09/10/94,02:35:00,44,45,66,0,6,4,11,81,49,0,17,18,13
09/10/94,02:40:00,76,48,79,0,6,4,10,81,49,0,25,27,21
09/10/94,02:45:00,63,50,47,0,6,4,10,81,49,0,18,18,14
09/10/94,02:50:00,49,46,54,0,6,4,10,81,49,0,19,22,19
09/10/94,02:55:00,87,49,75,0,6,4,10,81,49,0,25,25,18
09/10/94,03:00:00,56,40,54,0,5,4,10,81,49,0,17,17,13
09/10/94,03:05:00,49,53,46,0,5,4,9,81,49,0,21,26,23
09/10/94,03:10:00,54,45,50,0,5,3,8,82,49,0,22,21,15
09/10/94,03:15:00,47,48,52,0,4,3,8,82,49,0,16,20,16
09/10/94,03:20:00,31,49,46,0,4,3,7,82,49,0,24,29,19
09/10/94,03:25:00,56,47,56,0,3,2,6,81,49,0,20,18,13
09/10/94,03:30:00,55,41,40,0,3,2,6,82,49,0,19,23,23
09/10/94,03:35:00,33,48,49,0,3,2,6,82,49,0,25,25,15
09/10/94,03:40:00,58,42,64,0,3,2,5,81,49,0,17,18,15
09/10/94,03:45:00,29,44,63,0,2,2,5,82,85,0,21,28,20
09/10/94,03:50:00,55,58,55,0,2,2,5,81,49,0,23,20,13
09/10/94,03:55:00,60,54,55,0,2,1,4,81,49,0,15,19,21
09/10/94,04:00:00,52,58,48,0,2,1,4,82,49,0,21,28,16
09/10/94,04:05:00,38,43,58,0,1,1,3,81,49,0,22,18,12
09/10/94,04:10:00,68,64,44,0,1,1,3,81,49,0,16,22,22
09/10/94,04:15:00,70,26,2,0,1,1,2,82,49,0,22,28,14
09/10/94,04:20:00,56,31,37,0,1,1,2,82,49,0,28,21,23
09/10/94,04:25:00,63,15,2,0,0,1,2,83,50,0,19,29,18
09/10/94,04:30:00,38,30,0,0,0,0,1,82,63,0,26,30,27
09/10/94,04:35:00,53,20,37,0,0,0,1,83,50,0,25,22,17
09/10/94,04:40:00,77,29,0,0,0,0,1,82,50,0,22,30,28
09/10/94,04:45:00,50,20,1,0,0,0,0,81,50,0,29,26,16
09/10/94,04:50:00,67,10,14,0,0,0,0,81,50,0,22,24,27
09/10/94,04:55:00,56,22,4,0,0,0,0,81,50,0,23,32,18
09/10/94,05:00:00,30,0,43,0,0,0,0,82,50,0,30,23,26
09/10/94,05:05:00,45,10,0,0,0,0,0,81,50,0,20,26,20
09/10/94,05:10:00,37,12,14,0,0,0,0,81,50,0,27,33,23
09/10/94,05:15:00,46,6,8,0,0,0,0,82,65,0,25,22,21
09/10/94,05:20:00,56,0,44,0,0,0,0,82,49,0,23,28,23
09/10/94,05:25:00,68,13,32,0,0,0,0,82,49,0,30,32,22
09/10/94,05:30:00,48,28,18,0,0,0,0,82,49,0,20,22,20
09/10/94,05:35:00,69,28,7,0,0,0,0,82,49,0,25,30,25
09/10/94,05:40:00,32,16,0,0,0,0,0,78,49,0,26,29,18
09/10/94,05:45:00,63,0,6,0,0,0,0,78,49,0,21,24,26
09/10/94,05:50:00,74,6,16,0,0,0,0,78,49,0,28,31,18
09/10/94,05:55:00,54,24,23,0,0,0,0,78,49,0,22,24,26
09/10/94,06:00:00,65,13,0,0,0,0,0,78,81,0,23,25,18
09/10/94,06:05:00,45,0,22,0,0,0,0,78,50,0,29,32,26
09/10/94,06:10:00,47,24,0,0,0,0,0,78,50,0,20,22,20
09/10/94,06:15:00,77,14,0,0,0,0,0,78,50,0,26,28,25
09/10/94,06:20:00,44,18,5,0,0,0,0,78,50,0,26,31,20
09/10/94,06:25:00,50,12,2,0,0,0,0,78,50,0,21,22,22
09/10/94,06:30:00,61,12,16,0,0,0,0,78,50,0,28,30,22
09/10/94,06:35:00,50,19,4,0,0,0,0,78,49,0,23,27,20
09/10/94,06:40:00,63,2,35,0,0,0,0,78,49,0,23,24,24
09/10/94,06:45:00,70,26,0,0,0,0,0,78,72,0,30,32,19
09/10/94,06:50:00,48,15,0,0,0,0,0,78,49,0,20,23,26
09/10/94,06:55:00,73,25,5,0,0,0,0,78,49,0,24,25,18
09/10/94,07:00:00,60,12,20,0,0,0,0,78,49,0,29,31,27
09/10/94,07:05:00,48,21,39,0,0,0,0,78,49,0,20,21,17
09/10/94,07:10:00,42,15,12,0,0,0,0,78,49,0,26,28,26
09/10/94,07:15:00,42,2,14,0,0,0,0,78,49,0,25,30,17
09/10/94,07:20:00,55,23,0,0,0,0,0,78,49,0,21,22,26
09/10/94,07:25:00,59,11,0,0,0,0,0,78,49,0,28,29,17
09/10/94,07:30:00,55,27,16,0,0,0,0,78,49,0,22,27,24
09/10/94,07:35:00,59,19,34,0,0,0,0,78,41,0,23,24,19
09/10/94,07:40:00,45,31,23,0,0,0,0,77,41,0,28,31,21
09/10/94,07:45:00,72,22,27,0,0,0,0,77,41,0,19,22,20
09/10/94,07:50:00,43,22,0,0,0,0,0,78,41,0,25,26,21
09/10/94,07:55:00,54,38,0,0,0,0,0,78,49,0,24,31,19
09/10/94,08:00:00,82,15,30,0,0,0,0,80,49,0,21,21,23
09/10/94,08:05:00,82,18,43,0,0,0,0,80,49,0,28,28,21
09/10/94,08:10:00,31,8,28,0,0,0,0,80,49,0,22,30,20
09/10/94,08:15:00,41,6,5,0,0,0,0,80,49,0,22,23,23
09/10/94,08:20:00,72,16,8,0,0,0,0,81,49,0,29,30,19
09/10/94,08:25:00,62,8,43,0,0,0,0,80,49,0,20,25,24
09/10/94,08:30:00,56,14,0,0,0,0,0,80,49,0,24,24,19
09/10/94,08:35:00,40,30,0,0,0,0,0,80,49,0,29,32,25
09/10/94,08:40:00,11,10,11,0,0,0,0,81,49,0,19,22,17
09/10/94,08:45:00,0,6,0,0,0,0,0,81,49,0,26,28,30
09/10/94,08:50:00,13,15,26,0,0,0,0,154,49,0,31,33,21
09/10/94,08:55:00,30,15,22,0,0,0,0,81,49,0,32,36,30
09/10/94,09:00:00,40,32,0,0,0,0,0,81,82,0,24,28,24
09/10/94,09:05:00,19,6,17,0,0,0,0,81,43,0,30,30,25
09/10/94,09:10:00,4,14,16,0,0,0,0,81,43,0,33,34,28
09/10/94,09:15:00,1,29,12,0,0,0,0,81,43,0,22,27,20
09/10/94,09:20:00,19,26,27,0,0,0,0,81,43,0,29,28,32
09/10/94,09:25:00,14,29,0,0,0,0,0,81,43,0,33,34,23
09/10/94,09:30:00,0,1,4,0,0,0,0,81,43,0,24,34,27
09/10/94,09:35:00,24,30,3,0,0,0,0,81,43,0,27,27,28
09/10/94,09:40:00,16,21,2,0,0,0,0,81,43,0,32,33,21
09/10/94,09:45:00,11,21,12,0,0,0,0,82,59,0,28,34,30
09/10/94,09:50:00,0,34,0,0,0,0,0,81,43,0,25,26,24
09/10/94,09:55:00,0,6,0,0,0,0,0,81,43,0,31,32,28
09/10/94,10:00:00,9,28,34,0,0,0,0,81,43,0,32,35,27
09/10/94,10:05:00,21,16,51,0,0,0,0,81,43,0,23,26,21
09/10/94,10:10:00,38,19,5,0,0,0,0,81,43,0,29,30,32
09/10/94,10:15:00,15,9,3,0,0,0,0,81,36,0,33,34,21
09/10/94,10:20:00,36,22,0,0,0,0,0,81,35,0,22,31,28
09/10/94,10:25:00,0,16,30,0,0,0,0,81,35,0,27,27,26
09/10/94,10:30:00,0,29,0,0,0,0,0,81,44,0,32,33,21
09/10/94,10:35:00,0,15,23,0,0,0,0,81,35,0,26,32,30
09/10/94,10:40:00,16,19,6,0,0,0,0,81,35,0,25,26,24
09/10/94,10:45:00,34,10,0,0,0,0,0,81,35,0,31,32,25
09/10/94,10:50:00,16,22,15,0,0,0,0,81,35,0,29,34,26
09/10/94,10:55:00,19,4,37,0,0,0,0,82,42,0,25,25,21
09/10/94,11:00:00,19,18,50,0,0,0,0,79,37,0,31,32,31
09/10/94,11:05:00,5,29,0,0,0,0,0,79,50,0,30,35,23
09/10/94,11:10:00,0,7,42,0,0,0,0,79,50,0,25,30,28
09/10/94,11:15:00,0,19,3,0,0,0,0,79,83,0,32,28,28
09/10/94,11:20:00,0,26,42,0,0,0,0,78,50,0,33,34,21
09/10/94,11:25:00,0,40,3,0,0,0,0,79,50,0,24,36,32
09/10/94,11:30:00,18,17,18,0,0,0,0,79,50,0,30,36,22
09/10/94,11:35:00,0,26,19,0,0,0,0,78,50,0,33,26,30
09/10/94,11:40:00,10,18,0,0,0,0,0,79,50,0,35,32,28
09/10/94,11:45:00,1,9,14,0,0,0,0,79,50,0,23,36,22
09/10/94,11:50:00,14,35,0,0,0,0,0,81,49,0,29,37,32
09/10/94,11:55:00,36,7,3,0,0,0,0,81,49,0,33,25,24
09/10/94,12:00:00,4,15,23,0,0,0,0,81,49,0,34,32,28
09/10/94,12:05:00,8,8,18,0,0,0,0,81,49,0,34,36,28
09/10/94,12:10:00,0,13,50,0,0,0,0,81,49,0,24,36,21
09/10/94,12:15:00,3,9,0,0,0,0,0,81,49,0,30,36,33
09/10/94,12:20:00,18,29,48,0,0,0,0,81,35,0,34,26,22
09/10/94,12:25:00,27,19,1,0,0,0,0,81,35,0,25,29,30
09/10/94,12:30:00,0,33,0,0,0,0,0,81,35,0,27,35,26
09/10/94,12:35:00,0,9,0,0,0,0,0,81,35,0,33,29,22
09/10/94,12:40:00,25,14,36,0,0,0,0,82,35,0,25,29,30
09/10/94,12:45:00,23,22,38,0,0,0,0,79,35,0,27,34,20
09/10/94,12:50:00,15,20,16,0,0,0,0,76,29,0,32,33,30
09/10/94,12:55:00,43,12,4,0,0,0,0,77,29,0,23,25,24
09/10/94,13:00:00,16,18,8,0,0,0,0,77,29,0,27,32,24
09/10/94,13:05:00,27,13,4,0,0,0,0,76,29,0,32,34,27
09/10/94,13:10:00,23,34,0,0,0,0,0,77,29,0,22,24,20
09/10/94,13:15:00,10,40,27,0,0,0,0,76,29,0,28,32,29
09/10/94,13:20:00,6,13,21,0,0,0,0,76,29,0,29,34,23
09/10/94,13:25:00,13,18,28,0,0,0,0,76,29,0,24,25,24
09/10/94,13:30:00,0,23,36,0,0,0,0,76,30,0,31,32,28
09/10/94,13:35:00,11,22,1,0,0,0,0,77,29,0,25,29,19
09/10/94,13:40:00,24,7,7,0,0,0,0,76,29,0,25,27,31
09/10/94,13:45:00,1,13,0,0,0,0,0,77,29,0,32,33,20
09/10/94,13:50:00,0,5,48,0,0,0,0,76,29,0,22,27,28
09/10/94,13:55:00,1,23,16,0,0,0,0,76,29,0,27,27,25
09/10/94,14:00:00,0,6,26,0,0,0,0,76,29,0,33,34,22
09/10/94,14:05:00,23,20,10,0,0,0,0,76,29,0,22,25,27
09/10/94,14:10:00,0,7,1,0,0,0,0,76,29,0,29,29,20
09/10/94,14:15:00,0,18,27,0,0,0,0,76,29,0,31,35,30
09/10/94,14:20:00,9,29,19,0,0,0,0,76,29,0,23,24,21
09/10/94,14:25:00,2,0,7,0,0,0,0,76,29,0,30,31,29
09/10/94,14:30:00,8,14,0,0,0,0,0,76,29,0,27,32,24
09/10/94,14:35:00,25,0,12,0,0,0,0,76,29,0,25,26,22
09/10/94,14:40:00,0,27,0,0,0,0,0,76,29,0,31,33,29
09/10/94,14:45:00,0,20,0,0,0,0,0,76,29,0,22,24,19
09/10/94,14:50:00,19,25,13,0,0,0,0,76,29,0,27,29,30
09/10/94,14:55:00,2,16,6,0,0,0,0,76,29,0,32,34,22
09/10/94,15:00:00,0,13,37,0,0,0,0,76,65,0,22,24,26
09/10/94,15:05:00,29,22,21,0,0,0,0,76,29,0,29,31,27
09/10/94,15:10:00,0,21,0,0,0,0,0,76,29,0,29,32,19
09/10/94,15:15:00,23,9,9,0,0,0,0,77,29,0,24,26,31
09/10/94,15:20:00,4,13,45,0,0,0,0,76,29,0,30,33,19
09/10/94,15:25:00,15,20,16,0,0,0,0,76,29,0,26,30,28
09/10/94,15:30:00,14,18,3,0,0,0,0,77,29,0,25,26,24
09/10/94,15:35:00,13,16,5,0,0,0,0,76,29,0,32,33,22
09/10/94,15:40:00,27,30,41,0,0,0,0,76,29,0,22,28,27
09/10/94,15:45:00,0,24,10,0,0,0,0,77,30,0,28,28,20
09/10/94,15:50:00,19,0,6,0,0,0,0,76,30,0,30,34,29
09/10/94,15:55:00,4,29,2,0,0,0,0,76,30,0,22,24,21
09/10/94,16:00:00,0,38,0,0,0,0,0,76,30,0,29,30,28
09/10/94,16:05:00,3,11,18,0,0,0,0,76,30,0,28,35,23
09/10/94,16:10:00,35,18,3,0,0,0,0,77,30,0,24,23,22
09/10/94,16:15:00,0,13,7,0,0,0,0,76,30,0,31,30,30
09/10/94,16:20:00,0,11,0,0,0,0,0,76,30,0,26,34,19
09/10/94,16:25:00,0,27,0,0,0,0,0,76,65,0,24,25,30
09/10/94,16:30:00,7,20,10,0,0,0,0,76,69,0,31,32,22
09/10/94,16:35:00,0,29,15,0,0,0,0,77,29,0,25,30,24
09/10/94,16:40:00,0,11,0,0,0,0,0,76,29,0,25,26,27
09/10/94,16:45:00,19,25,49,0,0,0,0,76,29,0,32,34,20
09/10/94,16:50:00,0,3,0,0,0,0,0,76,29,0,22,24,30
09/10/94,16:55:00,0,21,21,0,0,0,0,76,29,0,28,29,22
09/10/94,17:00:00,17,18,16,0,0,0,0,76,45,0,32,35,26
09/10/94,17:05:00,0,4,6,0,0,0,0,76,30,0,23,24,24
09/10/94,17:10:00,16,9,7,0,0,0,0,76,29,0,31,32,23
09/10/94,17:15:00,2,17,5,0,0,0,0,76,30,0,24,26,27
09/10/94,17:20:00,5,20,0,0,0,0,0,76,30,0,27,29,20
09/10/94,17:25:00,13,7,21,0,0,0,0,76,30,0,30,33,29
09/10/94,17:30:00,13,27,36,0,0,0,0,76,30,0,24,24,22
09/10/94,17:35:00,3,20,11,0,0,0,0,76,30,0,31,32,26
09/10/94,17:40:00,0,26,13,0,0,0,0,76,30,0,23,30,25
09/10/94,17:45:00,18,6,19,0,0,0,0,76,30,0,27,26,20
09/10/94,17:50:00,10,13,9,0,0,0,0,76,30,0,32,34,29
09/10/94,17:55:00,8,32,8,0,0,0,0,76,43,0,22,24,21
09/10/94,18:00:00,0,30,2,0,0,0,0,76,29,0,29,30,27
09/10/94,18:05:00,18,35,0,0,0,0,0,76,29,0,27,32,25
09/10/94,18:10:00,0,20,37,0,0,0,0,76,29,0,24,25,20
09/10/94,18:15:00,0,13,28,0,0,0,0,76,29,0,32,34,29
09/10/94,18:20:00,33,35,4,0,0,0,0,76,29,0,21,23,19
09/10/94,18:25:00,14,25,16,0,0,0,0,76,29,0,29,30,26
09/10/94,18:30:00,11,26,30,0,0,0,0,76,29,0,25,28,21
09/10/94,18:35:00,13,26,22,0,0,0,0,76,30,0,25,26,25
09/10/94,18:40:00,11,32,19,0,0,0,0,76,29,0,31,35,22
09/10/94,18:45:00,16,23,0,0,0,0,0,76,37,0,20,22,21
09/10/94,18:50:00,17,32,13,0,0,0,0,76,29,0,28,30,27
09/10/94,18:55:00,34,37,35,0,0,0,0,75,29,0,22,25,17
09/10/94,19:00:00,5,37,17,0,0,0,0,76,29,0,23,25,26
09/10/94,19:05:00,21,34,24,0,0,0,0,75,29,0,29,31,16
09/10/94,19:10:00,47,34,30,0,0,0,0,75,29,0,18,19,23
09/10/94,19:15:00,48,31,42,0,0,0,0,75,29,0,23,27,16
09/10/94,19:20:00,41,22,42,0,0,0,0,75,29,0,20,21,11
09/10/94,19:25:00,42,27,33,0,0,0,0,75,29,0,16,19,20
09/10/94,19:30:00,46,25,34,0,0,0,0,75,63,0,24,29,16
09/10/94,19:35:00,22,30,33,0,0,0,0,75,29,0,19,19,12
09/10/94,19:40:00,45,28,40,0,0,0,0,75,29,0,17,23,22
09/10/94,19:45:00,41,27,27,0,0,0,0,75,29,0,25,24,14
09/10/94,19:50:00,40,26,45,0,0,0,0,75,29,0,17,17,11
09/10/94,19:55:00,38,30,35,0,0,0,0,75,29,0,16,26,21
09/10/94,20:00:00,42,27,44,0,0,0,0,75,29,0,24,21,15
09/10/94,20:05:00,46,29,30,0,0,0,0,74,29,0,17,17,11
09/10/94,20:10:00,40,31,41,0,0,0,0,75,29,0,19,27,21
09/10/94,20:15:00,45,24,32,0,0,0,0,75,62,0,23,21,15
09/10/94,20:20:00,41,32,26,0,0,0,0,75,29,0,16,18,11
09/10/94,20:25:00,11,25,12,0,0,0,0,75,29,0,21,28,24
09/10/94,20:30:00,9,30,18,0,0,0,0,75,29,0,25,23,16
09/10/94,20:35:00,35,32,14,0,0,0,0,75,29,0,18,20,18
09/10/94,20:40:00,26,30,24,0,0,0,0,75,29,0,26,30,20
09/10/94,20:45:00,46,25,42,0,0,0,0,75,44,0,18,18,13
09/10/94,20:50:00,41,18,31,0,1,1,2,75,29,0,16,22,13
09/10/94,20:55:00,30,22,40,0,1,1,3,75,29,0,24,26,21
09/10/94,21:00:00,32,22,45,0,1,1,4,156,63,0,18,18,16
09/10/94,21:05:00,11,11,14,0,2,1,4,75,29,0,27,29,24
09/10/94,21:10:00,0,0,14,0,2,2,4,76,29,0,20,22,21
09/10/94,21:15:00,17,4,21,0,2,2,5,76,29,0,29,30,24
09/10/94,21:20:00,0,0,6,0,2,2,5,76,29,0,22,27,24
09/10/94,21:25:00,0,0,1,0,3,2,6,76,29,0,28,29,24
09/10/94,21:30:00,0,0,13,0,3,2,6,76,29,0,33,38,30
09/10/94,21:35:00,17,0,7,0,3,3,7,76,29,0,23,24,19
09/10/94,21:40:00,0,0,0,0,4,3,7,76,29,0,34,35,32
09/10/94,21:45:00,0,0,0,0,4,3,7,76,42,0,23,24,24
09/10/94,21:50:00,0,0,0,0,4,3,8,76,30,0,31,31,30
09/10/94,21:55:00,0,0,0,0,5,3,9,76,29,0,31,36,29
09/10/94,22:00:00,0,0,0,0,6,4,10,76,30,0,27,27,22
09/10/94,22:05:00,0,0,0,0,6,4,11,155,29,0,37,39,34
09/10/94,22:10:00,0,0,0,0,8,4,12,76,29,0,24,24,26
09/10/94,22:15:00,0,0,0,0,9,4,13,76,29,0,35,36,29
09/10/94,22:20:00,0,0,0,0,10,4,14,76,29,0,24,26,29
09/10/94,22:25:00,18,0,24,0,10,4,15,76,29,0,31,32,22
09/10/94,22:30:00,0,0,1,0,9,5,14,122,66,0,32,36,33
09/10/94,22:35:00,0,0,18,0,8,5,13,123,41,0,29,29,29
09/10/94,22:40:00,0,0,14,0,8,5,13,80,41,0,38,40,29
09/10/94,22:45:00,0,0,15,0,8,5,13,80,41,0,25,26,32
09/10/94,22:50:00,11,0,20,0,8,5,13,80,41,0,34,34,24
09/10/94,22:55:00,0,0,0,0,9,5,15,80,41,0,29,37,36
09/10/94,23:00:00,0,0,0,0,11,6,17,80,48,0,30,28,26
09/10/94,23:05:00,0,0,18,0,12,7,20,80,48,0,39,39,31
09/10/94,23:10:00,0,0,0,0,15,8,23,80,48,0,25,27,31
09/10/94,23:15:00,0,0,0,0,17,10,27,80,80,0,37,34,24
09/10/94,23:20:00,0,0,0,0,17,9,26,80,48,0,26,37,36
09/10/94,23:25:00,0,0,0,0,18,10,27,80,48,0,32,28,25
09/10/94,23:30:00,0,0,0,0,17,10,26,80,48,0,36,39,32
09/10/94,23:35:00,0,0,0,0,16,9,25,80,48,0,27,26,30
09/10/94,23:40:00,0,0,0,0,17,9,26,80,44,0,38,36,24
09/10/94,23:45:00,0,0,0,0,18,10,27,80,44,0,26,34,35
09/10/94,23:50:00,0,0,0,0,18,10,27,83,44,0,32,29,25
09/10/94,23:55:00,0,0,0,0,21,11,31,83,44,0,34,40,32
09/11/94,00:00:00,0,0,0,0,19,10,28,83,44,0,27,25,30
